contact:dominique.lefevre@mio.osupytheas.fr, maurice.libes@osupytheas.fr, didier.mallarino@osupytheas.fr
Project:EMSO http://www.emso-fr.org/EMSO-France
Depth: 2436.0 m
Title:EMSO Ligure Ouest : Data MII capteur AQUADOPP
Date,Latitude,Longitude,X_East,Y_North,Z_Up,Amplitude_X,Amplitude_Y,Amplitude_Z,Batterie,SoundSpeed,Heading,Pitch,Roll,Pressure,TIS,Speed,Direction
, degrees North, degrees East, m.s-1, m.s-1,m.s-1, 1, 1, 1, Volt, m.s-1, degree, degree, degree, dbar, degree_C, m.s-1, degree
2019-08-22T00:00:41,42.805,6.029,0.043,-0.018,0.024,100.0,106.0,100.0,13.4,1505.3,326.0,-0.7,1.8,2470.141,13.33,0.046,112.7
2019-08-22T00:03:42,42.805,6.029,0.044,-0.015,0.041,102.0,105.0,99.0,13.4,1505.3,327.3,-0.7,1.8,2470.145,13.33,0.046,108.8
2019-08-22T00:06:43,42.805,6.029,0.052,-0.008,-0.002,103.0,105.0,99.0,13.3,1505.3,325.4,-0.7,1.8,2470.193,13.33,0.052,98.7
2019-08-22T00:09:44,42.805,6.029,0.048,-0.003,0.013,102.0,106.0,99.0,13.4,1505.3,326.7,-0.7,1.8,2470.229,13.33,0.048,93.6
2019-08-22T00:12:45,42.805,6.029,0.046,0.008,0.015,105.0,104.0,99.0,13.4,1505.3,327.6,-0.7,1.8,2470.142,13.33,0.046,80.1
2019-08-22T00:15:46,42.805,6.029,-0.016,-0.009,-0.064,102.0,105.0,99.0,13.3,1505.3,326.6,-0.7,1.8,2470.209,13.33,0.018,240.6
2019-08-22T00:18:47,42.805,6.029,0.004,-0.012,-0.018,102.0,103.0,100.0,13.3,1505.3,327.4,-0.7,1.8,2470.171,13.33,0.012,161.6
2019-08-22T00:21:48,42.805,6.029,0.006,-0.017,-0.016,104.0,105.0,99.0,13.4,1505.3,325.5,-0.7,1.8,2470.166,13.33,0.018,160.6
2019-08-22T00:24:49,42.805,6.029,-0.018,0.0,-0.039,103.0,103.0,100.0,13.4,1505.3,327.6,-0.8,1.8,2470.191,13.33,0.018,270.0
2019-08-22T00:27:50,42.805,6.029,-0.017,-0.013,-0.019,103.0,105.0,101.0,13.4,1505.3,326.7,-0.7,1.8,2470.227,13.33,0.021,232.6
2019-08-22T00:30:51,42.805,6.029,0.042,-0.013,-0.016,103.0,106.0,99.0,13.4,1505.3,327.3,-0.7,1.8,2470.161,13.33,0.043,107.2
2019-08-22T00:33:52,42.805,6.029,-0.051,0.004,-0.104,104.0,104.0,99.0,13.4,1505.3,327.7,-0.7,1.8,2470.109,13.33,0.051,274.5
2019-08-22T00:36:53,42.805,6.029,-0.016,-0.005,-0.026,102.0,105.0,99.0,13.3,1505.3,327.5,-0.7,1.8,2470.153,13.33,0.016,252.6
2019-08-22T00:39:54,42.805,6.029,0.043,-0.001,0.004,102.0,105.0,99.0,13.4,1505.3,325.0,-0.7,1.8,2470.141,13.33,0.043,91.3
2019-08-22T00:42:55,42.805,6.029,0.027,0.0,-0.003,103.0,104.0,98.0,13.4,1505.3,324.9,-0.7,1.8,2470.136,13.33,0.026,90.0
2019-08-22T00:45:56,42.805,6.029,0.031,0.011,0.004,101.0,104.0,98.0,13.3,1505.3,326.5,-0.7,1.8,2470.162,13.33,0.032,70.5
2019-08-22T00:48:57,42.805,6.029,0.011,0.013,-0.049,101.0,104.0,98.0,13.4,1505.3,323.2,-0.7,1.8,2470.166,13.33,0.017,40.2
2019-08-22T00:51:58,42.805,6.029,0.039,-0.004,-0.006,103.0,103.0,99.0,13.4,1505.3,327.9,-0.7,1.8,2470.123,13.33,0.039,95.9
2019-08-22T00:54:59,42.805,6.029,0.02,-0.018,-0.015,101.0,105.0,99.0,13.4,1505.3,328.2,-0.7,1.8,2470.162,13.33,0.026,132.0
2019-08-22T00:58:00,42.805,6.029,0.03,-0.006,0.028,102.0,105.0,98.0,13.4,1505.3,327.7,-0.7,1.8,2470.165,13.33,0.03,101.3
2019-08-22T01:01:01,42.805,6.029,-0.003,-0.005,-0.031,100.0,104.0,99.0,13.3,1505.3,324.5,-0.7,1.8,2470.13,13.33,0.005,211.0
2019-08-22T01:04:02,42.805,6.029,0.055,-0.005,-0.007,101.0,104.0,100.0,13.4,1505.3,327.0,-0.7,1.8,2470.154,13.33,0.055,95.2
2019-08-22T01:07:03,42.805,6.029,-0.003,0.018,-0.001,103.0,104.0,100.0,13.3,1505.3,324.0,-0.7,1.8,2470.117,13.33,0.018,350.5
2019-08-22T01:10:04,42.805,6.029,0.03,-0.006,0.01,103.0,103.0,100.0,13.4,1505.3,324.3,-0.8,1.8,2470.147,13.33,0.03,101.3
2019-08-22T01:13:05,42.805,6.029,0.011,-0.001,-0.016,102.0,104.0,99.0,13.4,1505.3,328.5,-0.7,1.8,2470.134,13.33,0.011,95.2
2019-08-22T01:16:06,42.805,6.029,0.026,-0.016,-0.002,102.0,102.0,99.0,13.4,1505.3,324.5,-0.7,1.9,2470.122,13.33,0.03,121.6
2019-08-22T01:19:07,42.805,6.029,0.016,0.006,-0.046,101.0,104.0,99.0,13.4,1505.3,326.6,-0.7,1.8,2470.14,13.33,0.017,69.4
2019-08-22T01:22:08,42.805,6.029,0.018,0.002,-0.035,104.0,104.0,98.0,13.4,1505.3,326.6,-0.7,1.8,2470.132,13.33,0.018,83.7
2019-08-22T01:25:09,42.805,6.029,0.032,0.003,-0.012,102.0,105.0,99.0,13.4,1505.3,324.4,-0.7,1.8,2470.134,13.33,0.032,84.6
2019-08-22T01:28:10,42.805,6.029,0.027,-0.008,-0.019,102.0,105.0,99.0,13.4,1505.3,324.4,-0.7,1.8,2470.156,13.33,0.028,106.5
2019-08-22T01:31:11,42.805,6.029,0.021,-0.022,0.006,103.0,105.0,99.0,13.4,1505.3,324.6,-0.7,1.9,2470.135,13.33,0.03,136.3
2019-08-22T01:34:12,42.805,6.029,-0.024,-0.021,-0.031,101.0,105.0,99.0,13.4,1505.3,323.4,-0.8,1.8,2470.2,13.33,0.031,228.8
2019-08-22T01:37:13,42.805,6.029,0.025,0.0,0.019,103.0,105.0,99.0,13.4,1505.3,324.5,-0.7,1.8,2470.116,13.33,0.025,90.0
2019-08-22T01:40:14,42.805,6.029,0.031,0.008,0.035,102.0,104.0,99.0,13.4,1505.3,326.5,-0.7,1.8,2470.122,13.33,0.032,75.5
2019-08-22T01:43:15,42.805,6.029,0.035,0.0,0.034,102.0,105.0,99.0,13.4,1505.3,324.5,-0.7,1.8,2470.119,13.33,0.035,90.0
2019-08-22T01:46:16,42.805,6.029,0.013,-0.003,-0.032,102.0,106.0,98.0,13.3,1505.3,326.7,-0.7,1.8,2470.15,13.33,0.013,103.0
2019-08-22T01:49:17,42.805,6.029,0.015,0.001,-0.031,104.0,105.0,101.0,13.4,1505.3,328.1,-0.7,1.8,2470.084,13.33,0.015,86.2
2019-08-22T01:52:18,42.805,6.029,-0.041,-0.001,-0.09,101.0,106.0,99.0,13.4,1505.3,323.4,-0.7,1.8,2470.128,13.33,0.041,268.6
2019-08-22T01:55:19,42.805,6.029,-0.024,0.007,-0.052,103.0,106.0,99.0,13.3,1505.3,326.6,-0.7,1.8,2470.117,13.33,0.025,286.3
2019-08-22T01:58:20,42.805,6.029,-0.017,-0.007,-0.088,102.0,111.0,100.0,13.4,1505.3,324.1,-0.7,1.8,2470.161,13.33,0.018,247.6
2019-08-22T02:01:21,42.805,6.029,0.021,0.0,-0.011,103.0,105.0,99.0,13.4,1505.3,324.7,-0.7,1.8,2470.055,13.33,0.021,90.0
2019-08-22T02:04:22,42.805,6.029,0.021,-0.009,-0.009,101.0,105.0,101.0,13.4,1505.3,327.5,-0.7,1.8,2470.084,13.33,0.022,113.2
2019-08-22T02:07:23,42.805,6.029,0.037,-0.004,-0.017,101.0,104.0,100.0,13.4,1505.3,324.9,-0.8,1.9,2470.128,13.33,0.037,96.2
2019-08-22T02:10:24,42.805,6.029,0.027,-0.019,-0.014,103.0,108.0,98.0,13.4,1505.3,326.9,-0.7,1.8,2470.099,13.33,0.033,125.1
2019-08-22T02:13:25,42.805,6.029,-0.012,-0.008,-0.023,101.0,104.0,101.0,13.4,1505.3,328.5,-0.7,1.8,2470.149,13.33,0.014,236.3
2019-08-22T02:16:26,42.805,6.029,0.038,0.002,0.007,102.0,104.0,101.0,13.4,1505.3,323.0,-0.7,1.8,2470.103,13.33,0.038,87.0
2019-08-22T02:19:27,42.805,6.029,0.02,0.009,-0.004,101.0,105.0,99.0,13.3,1505.3,323.0,-0.7,1.8,2470.105,13.33,0.021,65.8
2019-08-22T02:22:28,42.805,6.029,0.0,-0.002,-0.043,102.0,106.0,99.0,13.4,1505.3,322.9,-0.7,1.8,2470.063,13.33,0.002,180.0
2019-08-22T02:25:29,42.805,6.029,0.014,0.006,-0.02,103.0,106.0,99.0,13.4,1505.3,325.5,-0.7,1.8,2470.069,13.33,0.015,66.8
2019-08-22T02:28:30,42.805,6.029,0.006,-0.003,-0.016,101.0,106.0,99.0,13.4,1505.3,324.5,-0.7,1.9,2470.097,13.33,0.006,116.6
2019-08-22T02:31:31,42.805,6.029,-0.018,0.0,-0.064,102.0,107.0,99.0,13.3,1505.3,323.5,-0.7,1.8,2470.132,13.33,0.018,270.0
2019-08-22T02:34:32,42.805,6.029,-0.023,-0.009,-0.055,103.0,105.0,99.0,13.4,1505.3,327.5,-0.7,1.8,2470.103,13.33,0.024,248.6
2019-08-22T02:37:33,42.805,6.029,-0.028,-0.008,-0.056,102.0,106.0,99.0,13.4,1505.3,328.3,-0.7,1.8,2470.089,13.33,0.029,254.1
2019-08-22T02:40:34,42.805,6.029,-0.034,-0.012,-0.053,103.0,105.0,100.0,13.4,1505.3,325.7,-0.7,1.9,2470.074,13.33,0.036,250.6
2019-08-22T02:43:35,42.805,6.029,0.001,-0.009,-0.036,103.0,104.0,100.0,13.4,1505.3,325.3,-0.7,1.8,2470.071,13.33,0.009,173.7
2019-08-22T02:46:36,42.805,6.029,0.04,-0.024,0.001,102.0,105.0,100.0,13.4,1505.3,325.5,-0.7,1.8,2470.085,13.33,0.046,121.0
2019-08-22T02:49:37,42.805,6.029,0.011,-0.004,-0.003,102.0,106.0,99.0,13.4,1505.3,324.1,-0.7,1.8,2470.081,13.33,0.011,110.0
2019-08-22T02:52:38,42.805,6.029,0.024,-0.025,-0.061,103.0,105.0,98.0,13.3,1505.3,325.6,-0.7,1.9,2470.065,13.33,0.034,136.2
2019-08-22T02:55:39,42.805,6.029,0.017,-0.003,-0.02,102.0,105.0,100.0,13.4,1505.3,326.0,-0.7,1.8,2470.079,13.33,0.017,100.0
2019-08-22T02:58:40,42.805,6.029,0.04,0.012,0.002,102.0,107.0,100.0,13.4,1505.3,324.9,-0.7,1.8,2470.096,13.33,0.041,73.3
2019-08-22T03:01:41,42.805,6.029,0.051,-0.006,-0.006,103.0,105.0,99.0,13.4,1505.3,323.9,-0.7,1.8,2470.117,13.33,0.051,96.7
2019-08-22T03:04:42,42.805,6.029,0.009,-0.021,-0.017,102.0,107.0,99.0,13.4,1505.3,326.5,-0.7,1.8,2470.081,13.33,0.022,156.8
2019-08-22T03:07:43,42.805,6.029,-0.006,0.003,-0.011,104.0,105.0,100.0,13.3,1505.3,326.2,-0.7,1.8,2470.088,13.33,0.006,296.6
2019-08-22T03:10:44,42.805,6.029,0.029,-0.007,-0.015,102.0,106.0,99.0,13.4,1505.3,328.1,-0.7,1.8,2470.035,13.33,0.029,103.6
2019-08-22T03:13:45,42.805,6.029,0.029,-0.021,-0.019,101.0,105.0,98.0,13.4,1505.3,323.4,-0.7,1.8,2470.04,13.33,0.035,125.9
2019-08-22T03:16:46,42.805,6.029,0.024,-0.007,-0.002,103.0,107.0,100.0,13.3,1505.3,325.8,-0.7,1.8,2470.108,13.33,0.025,106.3
2019-08-22T03:19:47,42.805,6.029,0.011,0.002,0.025,103.0,106.0,100.0,13.3,1505.3,325.6,-0.7,1.8,2470.085,13.33,0.011,79.7
2019-08-22T03:22:48,42.805,6.029,0.061,0.002,0.02,101.0,106.0,99.0,13.3,1505.3,324.1,-0.7,1.9,2470.083,13.33,0.061,88.1
2019-08-22T03:25:49,42.805,6.029,0.052,-0.005,0.006,102.0,107.0,98.0,13.3,1505.3,326.2,-0.7,1.9,2470.081,13.33,0.052,95.5
2019-08-22T03:28:50,42.805,6.029,0.063,0.001,0.033,103.0,106.0,99.0,13.3,1505.3,324.7,-0.7,1.9,2470.087,13.33,0.063,89.1
2019-08-22T03:31:51,42.805,6.029,0.048,-0.01,-0.005,104.0,106.0,97.0,13.4,1505.3,324.2,-0.7,1.8,2470.041,13.33,0.049,101.8
2019-08-22T03:34:52,42.805,6.029,0.041,-0.014,0.017,103.0,105.0,99.0,13.4,1505.3,326.9,-0.7,1.8,2470.084,13.33,0.043,108.9
2019-08-22T03:37:53,42.805,6.029,-0.009,-0.008,-0.012,102.0,106.0,98.0,13.3,1505.3,324.2,-0.7,1.9,2470.051,13.33,0.012,228.4
2019-08-22T03:40:54,42.805,6.029,0.006,0.0,-0.04,101.0,107.0,99.0,13.4,1505.3,326.6,-0.7,1.8,2470.086,13.33,0.006,90.0
2019-08-22T03:43:55,42.805,6.029,0.038,0.003,-0.003,102.0,107.0,99.0,13.4,1505.3,326.8,-0.7,1.8,2470.083,13.33,0.038,85.5
2019-08-22T03:46:56,42.805,6.029,0.044,-0.014,0.006,104.0,107.0,99.0,13.4,1505.3,323.5,-0.7,1.8,2470.023,13.33,0.046,107.6
2019-08-22T03:49:57,42.805,6.029,0.049,-0.038,0.012,102.0,106.0,100.0,13.3,1505.3,328.4,-0.7,1.8,2470.071,13.33,0.062,127.8
2019-08-22T03:52:58,42.805,6.029,-0.053,-0.016,-0.065,103.0,106.0,98.0,13.4,1505.3,326.4,-0.7,1.8,2470.016,13.33,0.055,253.2
2019-08-22T03:55:59,42.805,6.029,-0.012,-0.012,-0.048,101.0,105.0,98.0,13.4,1505.3,327.4,-0.7,1.8,2470.052,13.33,0.016,225.0
2019-08-22T03:59:00,42.805,6.029,-0.06,-0.021,-0.1,103.0,105.0,99.0,13.3,1505.3,322.7,-0.7,1.8,2470.053,13.33,0.063,250.7
2019-08-22T04:02:01,42.805,6.029,-0.028,-0.031,-0.036,103.0,104.0,99.0,13.3,1505.3,327.1,-0.7,1.9,2470.076,13.33,0.041,222.1
2019-08-22T04:05:02,42.805,6.029,-0.023,0.003,-0.023,102.0,104.0,98.0,13.3,1505.3,325.5,-0.7,1.8,2470.077,13.33,0.023,277.4
2019-08-22T04:08:03,42.805,6.029,-0.047,-0.02,-0.059,101.0,106.0,98.0,13.3,1505.3,327.0,-0.7,1.8,2470.043,13.33,0.051,247.0
2019-08-22T04:11:04,42.805,6.029,-0.047,-0.02,-0.061,102.0,104.0,101.0,13.4,1505.3,328.2,-0.7,1.8,2470.053,13.33,0.051,247.0
2019-08-22T04:14:05,42.805,6.029,-0.026,-0.025,-0.094,102.0,104.0,98.0,13.4,1505.3,324.5,-0.7,1.9,2470.072,13.33,0.036,226.1
2019-08-22T04:17:06,42.805,6.029,-0.057,-0.025,-0.093,102.0,106.0,98.0,13.4,1505.3,327.4,-0.7,1.9,2470.038,13.33,0.062,246.3
2019-08-22T04:20:07,42.805,6.029,-0.028,-0.014,-0.059,100.0,106.0,100.0,13.4,1505.3,325.3,-0.7,1.8,2470.107,13.33,0.031,243.4
2019-08-22T04:23:08,42.805,6.029,-0.012,-0.023,-0.041,102.0,104.0,99.0,13.4,1505.3,327.2,-0.7,1.8,2470.083,13.33,0.025,207.6
2019-08-22T04:26:09,42.805,6.029,-0.003,-0.007,-0.025,103.0,105.0,98.0,13.4,1505.3,325.6,-0.7,1.8,2470.062,13.33,0.007,203.2
2019-08-22T04:29:10,42.805,6.029,0.013,0.001,-0.031,103.0,103.0,99.0,13.3,1505.3,326.3,-0.7,1.8,2470.032,13.33,0.013,85.6
2019-08-22T04:32:11,42.805,6.029,0.004,-0.003,-0.011,104.0,105.0,99.0,13.4,1505.3,326.9,-0.7,1.8,2470.055,13.33,0.005,126.9
2019-08-22T04:35:12,42.805,6.029,-0.004,-0.02,-0.024,102.0,104.0,98.0,13.4,1505.3,323.3,-0.7,1.8,2470.075,13.33,0.02,191.3
2019-08-22T04:38:13,42.805,6.029,0.017,-0.003,-0.007,102.0,105.0,99.0,13.4,1505.3,324.1,-0.7,1.8,2470.061,13.33,0.017,100.0
2019-08-22T04:41:14,42.805,6.029,-0.014,-0.001,-0.04,103.0,105.0,99.0,13.4,1505.3,324.8,-0.7,1.8,2470.027,13.33,0.014,265.9
2019-08-22T04:44:15,42.805,6.029,-0.003,-0.024,-0.045,103.0,104.0,100.0,13.4,1505.3,327.6,-0.7,1.8,2470.062,13.33,0.024,187.1
2019-08-22T04:47:16,42.805,6.029,0.022,-0.015,-0.023,103.0,104.0,98.0,13.3,1505.3,324.0,-0.7,1.8,2470.037,13.33,0.026,124.3
2019-08-22T04:50:17,42.805,6.029,0.004,0.0,-0.063,102.0,102.0,99.0,13.4,1505.3,325.6,-0.8,1.8,2470.022,13.33,0.004,90.0
2019-08-22T04:53:18,42.805,6.029,-0.009,-0.001,-0.026,102.0,104.0,98.0,13.4,1505.3,328.2,-0.7,1.8,2470.052,13.33,0.009,263.7
2019-08-22T04:56:19,42.805,6.029,-0.001,-0.001,-0.02,102.0,103.0,99.0,13.4,1505.3,326.3,-0.7,1.9,2470.035,13.33,0.001,225.0
2019-08-22T04:59:20,42.805,6.029,0.019,-0.008,-0.062,103.0,102.0,99.0,13.4,1505.3,327.7,-0.7,1.8,2470.009,13.33,0.02,112.8
2019-08-22T05:02:21,42.805,6.029,0.002,-0.004,-0.055,102.0,104.0,100.0,13.4,1505.3,323.8,-0.7,1.8,2470.076,13.33,0.004,153.4
2019-08-22T05:05:22,42.805,6.029,-0.015,-0.004,-0.01,102.0,106.0,98.0,13.4,1505.3,327.2,-0.7,1.8,2470.063,13.33,0.015,255.1
2019-08-22T05:08:23,42.805,6.029,-0.01,-0.027,-0.024,100.0,104.0,98.0,13.3,1505.3,327.2,-0.7,1.8,2470.038,13.33,0.028,200.3
2019-08-22T05:11:24,42.805,6.029,-0.015,-0.008,0.0,102.0,103.0,98.0,13.4,1505.3,324.1,-0.7,1.8,2469.996,13.33,0.017,241.9
2019-08-22T05:14:25,42.805,6.029,-0.015,-0.003,-0.012,102.0,105.0,97.0,13.4,1505.3,324.7,-0.7,1.8,2470.047,13.33,0.015,258.7
2019-08-22T05:17:26,42.805,6.029,-0.013,-0.006,-0.031,101.0,105.0,100.0,13.3,1505.3,323.8,-0.7,1.8,2470.1,13.33,0.014,245.2
2019-08-22T05:20:27,42.805,6.029,-0.008,-0.007,-0.037,103.0,103.0,99.0,13.4,1505.3,324.7,-0.7,1.8,2470.038,13.33,0.01,228.8
2019-08-22T05:23:28,42.805,6.029,0.045,-0.004,0.0,101.0,105.0,98.0,13.4,1505.3,327.7,-0.7,1.8,2470.089,13.33,0.045,95.1
2019-08-22T05:26:29,42.805,6.029,0.012,-0.019,-0.017,103.0,103.0,100.0,13.3,1505.3,325.0,-0.7,1.8,2470.011,13.33,0.022,147.7
2019-08-22T05:29:30,42.805,6.029,-0.021,-0.009,-0.015,101.0,104.0,100.0,13.4,1505.3,324.1,-0.7,1.8,2470.027,13.33,0.022,246.8
2019-08-22T05:32:31,42.805,6.029,0.019,-0.003,-0.051,102.0,104.0,99.0,13.3,1505.3,325.0,-0.7,1.8,2470.014,13.33,0.019,99.0
2019-08-22T05:35:32,42.805,6.029,0.001,-0.019,-0.021,103.0,104.0,99.0,13.4,1505.3,324.2,-0.7,1.8,2470.004,13.33,0.019,177.0
2019-08-22T05:38:33,42.805,6.029,-0.001,0.006,-0.034,102.0,105.0,99.0,13.4,1505.3,328.3,-0.7,1.8,2470.039,13.33,0.006,350.5
2019-08-22T05:41:34,42.805,6.029,-0.013,-0.002,-0.076,102.0,103.0,99.0,13.3,1505.3,326.2,-0.7,1.8,2470.017,13.33,0.013,261.3
2019-08-22T05:44:35,42.805,6.029,-0.025,-0.017,-0.072,103.0,103.0,99.0,13.4,1505.3,324.5,-0.7,1.8,2470.009,13.33,0.03,235.8
2019-08-22T05:47:36,42.805,6.029,-0.028,0.003,-0.027,102.0,105.0,99.0,13.3,1505.3,327.3,-0.7,1.8,2470.036,13.33,0.028,276.1
2019-08-22T05:50:37,42.805,6.029,0.001,0.01,-0.032,100.0,104.0,98.0,13.4,1505.3,327.0,-0.7,1.8,2470.05,13.33,0.01,5.7
2019-08-22T05:53:38,42.805,6.029,0.0,-0.008,-0.038,102.0,105.0,98.0,13.4,1505.3,324.2,-0.7,1.8,2470.079,13.33,0.008,180.0
2019-08-22T05:56:39,42.805,6.029,-0.019,-0.006,-0.022,101.0,104.0,98.0,13.4,1505.3,327.1,-0.7,1.8,2470.089,13.33,0.019,252.5
2019-08-22T05:59:40,42.805,6.029,0.003,0.004,-0.038,101.0,105.0,98.0,13.3,1505.3,327.7,-0.7,1.8,2470.048,13.33,0.005,36.9
2019-08-22T06:02:41,42.805,6.029,-0.008,-0.019,-0.009,103.0,104.0,99.0,13.3,1505.3,323.7,-0.7,1.8,2470.042,13.33,0.02,202.8
2019-08-22T06:05:42,42.805,6.029,-0.01,-0.011,-0.047,101.0,103.0,99.0,13.3,1505.3,323.3,-0.7,1.9,2470.032,13.33,0.014,222.3
2019-08-22T06:08:43,42.805,6.029,0.015,-0.006,-0.013,102.0,105.0,99.0,13.3,1505.3,326.1,-0.7,1.9,2470.024,13.33,0.016,111.8
2019-08-22T06:11:44,42.805,6.029,-0.005,0.001,-0.006,102.0,104.0,98.0,13.3,1505.3,324.8,-0.7,1.9,2470.076,13.33,0.005,281.3
2019-08-22T06:14:45,42.805,6.029,0.025,-0.018,-0.005,102.0,104.0,99.0,13.4,1505.3,327.4,-0.7,1.8,2470.036,13.33,0.03,125.8
2019-08-22T06:17:46,42.805,6.029,0.004,0.015,-0.027,103.0,104.0,98.0,13.4,1505.3,323.2,-0.7,1.8,2470.054,13.33,0.015,14.9
2019-08-22T06:20:47,42.805,6.029,0.014,-0.016,-0.014,102.0,104.0,99.0,13.3,1505.3,324.3,-0.7,1.8,2469.999,13.33,0.021,138.8
2019-08-22T06:23:48,42.805,6.029,0.004,-0.002,-0.023,102.0,104.0,100.0,13.4,1505.3,325.3,-0.7,1.8,2470.021,13.33,0.004,116.6
2019-08-22T06:26:49,42.805,6.029,-0.008,-0.013,-0.033,103.0,104.0,100.0,13.4,1505.3,325.8,-0.7,1.9,2470.039,13.33,0.015,211.6
2019-08-22T06:29:50,42.805,6.029,0.006,-0.007,-0.002,102.0,104.0,99.0,13.3,1505.3,327.8,-0.7,1.8,2470.03,13.33,0.009,139.4
2019-08-22T06:32:51,42.805,6.029,0.001,-0.023,-0.005,102.0,105.0,99.0,13.4,1505.3,324.7,-0.7,1.9,2470.064,13.33,0.023,177.5
2019-08-22T06:35:52,42.805,6.029,-0.01,-0.003,-0.015,103.0,104.0,101.0,13.4,1505.3,323.5,-0.7,1.8,2470.087,13.33,0.01,253.3
2019-08-22T06:38:53,42.805,6.029,0.022,-0.006,-0.037,102.0,104.0,99.0,13.4,1505.3,325.3,-0.8,1.8,2470.074,13.33,0.022,105.3
2019-08-22T06:41:54,42.805,6.029,0.002,0.01,-0.02,103.0,104.0,99.0,13.4,1505.3,328.2,-0.7,1.8,2470.067,13.33,0.01,11.3
2019-08-22T06:44:55,42.805,6.029,0.003,-0.01,-0.051,102.0,104.0,99.0,13.4,1505.3,324.0,-0.7,1.8,2470.049,13.33,0.01,163.3
2019-08-22T06:47:56,42.805,6.029,0.004,0.0,-0.025,103.0,104.0,99.0,13.4,1505.3,324.8,-0.7,1.8,2470.054,13.33,0.004,90.0
2019-08-22T06:50:57,42.805,6.029,0.002,-0.004,-0.021,103.0,104.0,99.0,13.4,1505.3,326.2,-0.7,1.8,2470.063,13.33,0.004,153.4
2019-08-22T06:53:58,42.805,6.029,-0.012,-0.006,-0.056,104.0,104.0,98.0,13.4,1505.3,326.0,-0.7,1.8,2470.04,13.33,0.013,243.4
2019-08-22T06:56:59,42.805,6.029,0.017,-0.032,-0.016,104.0,104.0,99.0,13.4,1505.3,326.8,-0.7,1.8,2470.033,13.33,0.036,152.0
2019-08-22T07:00:00,42.805,6.029,0.029,-0.031,-0.025,104.0,103.0,99.0,13.3,1505.3,326.0,-0.7,1.8,2470.016,13.33,0.042,136.9
2019-08-22T07:03:01,42.805,6.029,0.024,-0.001,-0.007,103.0,103.0,100.0,13.3,1505.3,326.0,-0.7,1.8,2470.047,13.33,0.024,92.4
2019-08-22T07:06:02,42.805,6.029,-0.022,0.006,-0.055,103.0,106.0,100.0,13.4,1505.3,323.2,-0.7,1.8,2470.059,13.33,0.022,285.3
2019-08-22T07:09:03,42.805,6.029,0.009,0.007,0.002,102.0,104.0,101.0,13.4,1505.3,325.3,-0.7,1.9,2470.03,13.33,0.011,52.1
2019-08-22T07:12:04,42.805,6.029,0.034,-0.024,0.003,103.0,104.0,100.0,13.4,1505.3,324.2,-0.7,1.9,2470.056,13.33,0.041,125.2
2019-08-22T07:15:05,42.805,6.029,0.008,-0.002,0.026,103.0,104.0,100.0,13.3,1505.3,325.0,-0.7,1.8,2470.022,13.33,0.008,104.0
2019-08-22T07:18:06,42.805,6.029,-0.014,-0.002,-0.007,102.0,106.0,99.0,13.4,1505.3,324.6,-0.7,1.8,2470.115,13.33,0.014,261.9
2019-08-22T07:21:07,42.805,6.029,0.02,-0.014,-0.006,103.0,104.0,99.0,13.4,1505.3,326.7,-0.7,1.8,2470.052,13.33,0.024,125.0
2019-08-22T07:24:08,42.805,6.029,-0.009,-0.01,-0.028,104.0,105.0,99.0,13.3,1505.3,327.1,-0.7,1.8,2470.033,13.33,0.013,222.0
2019-08-22T07:27:09,42.805,6.029,0.008,-0.009,-0.043,103.0,106.0,101.0,13.4,1505.3,327.8,-0.7,1.8,2470.052,13.33,0.012,138.4
2019-08-22T07:30:10,42.805,6.029,0.016,-0.004,0.003,100.0,105.0,100.0,13.4,1505.3,324.8,-0.7,1.8,2470.045,13.33,0.016,104.0
2019-08-22T07:33:11,42.805,6.029,0.003,-0.031,-0.021,103.0,105.0,101.0,13.3,1505.3,324.5,-0.7,1.8,2470.038,13.33,0.031,174.5
2019-08-22T07:36:12,42.805,6.029,-0.003,0.0,-0.036,102.0,105.0,100.0,13.3,1505.3,325.8,-0.7,1.8,2470.06,13.33,0.003,270.0
2019-08-22T07:39:13,42.805,6.029,-0.037,-0.026,-0.066,102.0,105.0,100.0,13.4,1505.3,323.4,-0.7,1.8,2470.047,13.33,0.045,234.9
2019-08-22T07:42:14,42.805,6.029,-0.041,-0.005,-0.081,103.0,103.0,98.0,13.3,1505.3,328.5,-0.7,1.9,2470.045,13.33,0.041,263.0
2019-08-22T07:45:15,42.805,6.029,-0.004,0.004,-0.041,104.0,104.0,99.0,13.3,1505.3,324.3,-0.7,1.8,2470.063,13.33,0.005,315.0
2019-08-22T07:48:16,42.805,6.029,-0.013,-0.037,-0.034,102.0,105.0,99.0,13.4,1505.3,326.0,-0.7,1.8,2470.084,13.33,0.039,199.4
2019-08-22T07:51:17,42.805,6.029,0.013,-0.016,-0.042,102.0,104.0,100.0,13.4,1505.3,327.8,-0.7,1.8,2470.058,13.33,0.02,140.9
2019-08-22T07:54:18,42.805,6.029,-0.008,-0.013,-0.047,101.0,105.0,100.0,13.4,1505.3,326.8,-0.7,1.9,2470.078,13.33,0.015,211.6
2019-08-22T07:57:19,42.805,6.029,-0.034,-0.012,-0.04,103.0,105.0,99.0,13.4,1505.3,328.3,-0.7,1.8,2470.104,13.33,0.036,250.6
2019-08-22T08:00:20,42.805,6.029,-0.032,-0.011,-0.019,103.0,105.0,99.0,13.4,1505.3,325.0,-0.7,1.8,2470.094,13.33,0.033,251.0
2019-08-22T08:03:21,42.805,6.029,-0.007,0.0,0.022,102.0,105.0,99.0,13.3,1505.3,325.3,-0.7,1.8,2470.115,13.33,0.007,270.0
2019-08-22T08:06:22,42.805,6.029,-0.024,-0.016,-0.046,104.0,104.0,99.0,13.4,1505.3,326.5,-0.7,1.9,2470.124,13.33,0.028,236.3
2019-08-22T08:09:23,42.805,6.029,-0.02,0.007,-0.037,103.0,105.0,99.0,13.3,1505.3,324.3,-0.7,1.8,2470.091,13.33,0.021,289.3
2019-08-22T08:12:24,42.805,6.029,0.037,-0.032,-0.012,102.0,106.0,98.0,13.3,1505.3,324.8,-0.7,1.8,2470.099,13.33,0.048,130.9
2019-08-22T08:15:25,42.805,6.029,-0.026,-0.009,-0.054,103.0,105.0,99.0,13.3,1505.3,327.4,-0.7,1.8,2470.094,13.33,0.027,250.9
2019-08-22T08:18:26,42.805,6.029,0.004,-0.038,-0.009,102.0,105.0,100.0,13.3,1505.3,324.9,-0.7,1.8,2470.129,13.33,0.038,174.0
2019-08-22T08:21:27,42.805,6.029,-0.021,-0.025,-0.046,102.0,105.0,100.0,13.4,1505.3,326.1,-0.7,1.8,2470.083,13.33,0.032,220.0
2019-08-22T08:24:28,42.805,6.029,0.005,0.0,-0.014,103.0,105.0,99.0,13.3,1505.3,323.9,-0.8,1.8,2470.132,13.33,0.005,90.0
2019-08-22T08:27:29,42.805,6.029,-0.029,0.0,-0.032,105.0,105.0,99.0,13.3,1505.3,328.1,-0.7,1.8,2470.079,13.33,0.028,270.0
2019-08-22T08:30:30,42.805,6.029,-0.018,-0.025,-0.028,103.0,104.0,99.0,13.3,1505.3,326.8,-0.7,1.8,2470.096,13.33,0.03,215.8
2019-08-22T08:33:31,42.805,6.029,-0.029,-0.027,-0.041,104.0,105.0,99.0,13.4,1505.3,325.3,-0.7,1.8,2470.099,13.33,0.039,227.0
2019-08-22T08:36:32,42.805,6.029,-0.017,-0.013,-0.032,103.0,106.0,99.0,13.4,1505.3,328.2,-0.7,1.8,2470.085,13.33,0.021,232.6
2019-08-22T08:39:33,42.805,6.029,-0.014,0.007,-0.033,102.0,107.0,98.0,13.3,1505.3,323.8,-0.7,1.8,2470.139,13.33,0.015,296.6
2019-08-22T08:42:34,42.805,6.029,0.022,-0.009,0.01,103.0,106.0,99.0,13.4,1505.3,322.8,-0.7,1.8,2470.085,13.33,0.023,112.2
2019-08-22T08:45:35,42.805,6.029,0.01,-0.004,-0.014,102.0,105.0,100.0,13.4,1505.3,328.4,-0.7,1.8,2470.089,13.33,0.01,111.8
2019-08-22T08:48:36,42.805,6.029,-0.008,-0.007,-0.014,103.0,105.0,100.0,13.4,1505.3,328.3,-0.7,1.8,2470.106,13.33,0.01,228.8
2019-08-22T08:51:37,42.805,6.029,0.001,-0.02,-0.062,102.0,104.0,100.0,13.4,1505.3,325.1,-0.7,1.8,2470.076,13.33,0.02,177.1
2019-08-22T08:54:38,42.805,6.029,-0.019,-0.005,-0.059,102.0,106.0,98.0,13.3,1505.3,324.7,-0.7,1.8,2470.109,13.33,0.019,255.3
2019-08-22T08:57:39,42.805,6.029,0.008,0.009,0.01,103.0,106.0,99.0,13.4,1505.3,323.8,-0.7,1.8,2470.113,13.33,0.012,41.6
2019-08-22T09:00:40,42.805,6.029,0.009,-0.005,0.0,102.0,105.0,99.0,13.4,1505.3,326.8,-0.7,1.9,2470.103,13.33,0.01,119.1
2019-08-22T09:03:41,42.805,6.029,-0.009,-0.017,-0.032,102.0,105.0,99.0,13.4,1505.3,323.6,-0.7,1.8,2470.068,13.33,0.019,207.9
2019-08-22T09:06:42,42.805,6.029,0.016,-0.023,-0.017,102.0,105.0,98.0,13.4,1505.3,322.7,-0.7,1.8,2470.099,13.33,0.028,145.2
2019-08-22T09:09:43,42.805,6.029,-0.014,-0.018,-0.041,103.0,106.0,100.0,13.4,1505.3,322.9,-0.7,1.8,2470.143,13.33,0.022,217.9
2019-08-22T09:12:44,42.805,6.029,-0.038,-0.004,-0.066,103.0,105.0,98.0,13.3,1505.3,326.0,-0.7,1.8,2470.117,13.33,0.038,264.0
2019-08-22T09:15:45,42.805,6.029,-0.008,-0.02,-0.024,102.0,105.0,99.0,13.3,1505.3,327.3,-0.7,1.8,2470.113,13.33,0.021,201.8
2019-08-22T09:18:46,42.805,6.029,-0.03,-0.016,-0.044,103.0,105.0,99.0,13.3,1505.3,327.8,-0.7,1.8,2470.134,13.33,0.034,241.9
2019-08-22T09:21:47,42.805,6.029,0.001,-0.011,0.029,101.0,105.0,100.0,13.4,1505.3,326.1,-0.7,1.9,2470.111,13.33,0.011,174.8
2019-08-22T09:24:48,42.805,6.029,0.004,-0.01,-0.003,103.0,106.0,99.0,13.4,1505.3,323.9,-0.7,1.9,2470.142,13.33,0.01,158.2
2019-08-22T09:27:49,42.805,6.029,-0.015,-0.001,-0.017,101.0,105.0,100.0,13.4,1505.3,327.2,-0.7,1.8,2470.11,13.33,0.015,266.2
2019-08-22T09:30:50,42.805,6.029,0.006,-0.001,-0.031,102.0,106.0,100.0,13.3,1505.3,326.0,-0.7,1.8,2470.134,13.33,0.006,99.5